| time (UTC) | temp F | wind direction | speed MPH | gust MPH | rain 1hr in | rain 24hr in | rain mn in | humidity % | barometer mb |
| 20260906232431 | 78 | 291 | 3.0 | 5.0 | 0.00 | 0.71 | 0.71 | 45 | 1013.4 |
| 20260906231925 | 77 | 265 | 2.0 | 5.0 | 0.00 | 0.71 | 0.71 | 46 | 1013.5 |
| 20260906231420 | 77 | 250 | 4.0 | 7.0 | 0.00 | 0.71 | 0.71 | 45 | 1013.4 |
| 20260906230915 | 78 | 356 | 0.0 | 4.0 | 0.00 | 0.71 | 0.71 | 44 | 1013.5 |
| 20260906230410 | 77 | 240 | 3.0 | 4.0 | 0.00 | 0.71 | 0.71 | 45 | 1013.5 |
| 20260906225907 | 76 | 272 | 4.0 | 8.0 | 0.00 | 0.71 | 0.71 | 45 | 1013.4 |
| 20260906225403 | 76 | 320 | 5.0 | 11.0 | 0.00 | 0.71 | 0.71 | 43 | 1013.6 |
| 20260906224859 | 76 | 303 | 3.0 | 7.0 | 0.00 | 0.71 | 0.71 | 43 | 1013.7 |
| 20260906224350 | 75 | 277 | 3.0 | 8.0 | 0.00 | 0.71 | 0.71 | 45 | 1013.7 |
| 20260906223846 | 76 | 121 | 1.0 | 8.0 | 0.00 | 0.71 | 0.71 | 44 | 1013.7 |
| 20260906223341 | 77 | 167 | 2.0 | 7.0 | 0.00 | 0.71 | 0.71 | 44 | 1013.8 |
| 20260906222839 | 77 | 311 | 5.0 | 14.0 | 0.00 | 0.71 | 0.71 | 46 | 1013.9 |
| 20260906222333 | 77 | 259 | 2.0 | 4.0 | 0.00 | 0.71 | 0.71 | 44 | 1014.1 |
| 20260906221831 | 75 | 229 | 4.0 | 8.0 | 0.00 | 0.71 | 0.71 | 45 | 1014.1 |
| 20260906221331 | 76 | 283 | 7.0 | 8.0 | 0.00 | 0.71 | 0.71 | 43 | 1014.2 |
| 20260906220826 | 78 | 298 | 6.0 | 10.0 | 0.00 | 0.71 | 0.71 | 42 | 1014.2 |
| 20260906220321 | 76 | 264 | 6.0 | 11.0 | 0.00 | 0.71 | 0.71 | 43 | 1014.2 |
| 20260906215819 | 76 | 280 | 3.0 | 7.0 | 0.00 | 0.71 | 0.71 | 44 | 1014.2 |
| 20260906215315 | 77 | 78 | 1.0 | 5.0 | 0.00 | 0.71 | 0.71 | 43 | 1014.2 |
| 20260906214813 | 76 | 247 | 4.0 | 7.0 | 0.00 | 0.71 | 0.71 | 44 | 1014.3 |
| 20260906214308 | 76 | 266 | 2.0 | 5.0 | 0.00 | 0.71 | 0.71 | 45 | 1014.2 |
| 20260906213807 | 77 | 290 | 3.0 | 5.0 | 0.00 | 0.71 | 0.71 | 42 | 1014.2 |
| 20260906213306 | 77 | 299 | 8.0 | 8.0 | 0.00 | 0.71 | 0.71 | 42 | 1014.1 |
| 20260906212804 | 76 | 239 | 5.0 | 7.0 | 0.00 | 0.71 | 0.71 | 44 | 1014.2 |
| 20260906212259 | 76 | 240 | 5.0 | 8.0 | 0.00 | 0.71 | 0.71 | 44 | 1014.3 |
| 20260906211754 | 75 | 260 | 7.0 | 12.0 | 0.00 | 0.71 | 0.71 | 45 | 1014.2 |
| 20260906211254 | 76 | 268 | 9.0 | 14.0 | 0.00 | 0.71 | 0.71 | 44 | 1014.5 |
| 20260906210749 | 75 | 269 | 5.0 | 10.0 | 0.00 | 0.71 | 0.71 | 45 | 1014.3 |
| 20260906210244 | 75 | 261 | 7.0 | 8.0 | 0.00 | 0.71 | 0.71 | 45 | 1014.4 |
| 20260906205744 | 75 | 253 | 8.0 | 11.0 | 0.00 | 0.71 | 0.71 | 44 | 1014.3 |
| 20260906205241 | 75 | 264 | 7.0 | 10.0 | 0.00 | 0.71 | 0.71 | 45 | 1014.3 |
| 20260906204736 | 76 | 277 | 7.0 | 11.0 | 0.00 | 0.71 | 0.71 | 45 | 1014.4 |
| 20260906204236 | 66 | 315 | 2.0 | 4.0 | 0.07 | 0.71 | 0.71 | 60 | 1014.3 |
| 20260906203735 | 65 | 189 | 0.0 | 1.0 | 0.85 | 0.71 | 0.71 | 99 | 1014.3 |
| 20260906203230 | 64 | 108 | 0.0 | 1.0 | 1.13 | 0.68 | 0.68 | 99 | 1014.4 |
| 20260906202727 | 59 | 25 | 0.0 | 5.0 | 0.31 | 0.54 | 0.54 | 99 | 1014.4 |
| 20260906202226 | 62 | 39 | 1.0 | 3.0 | 0.00 | 0.49 | 0.49 | 99 | 1014.5 |
| 20260906201721 | 61 | 56 | 0.0 | 0.0 | 0.00 | 0.49 | 0.49 | 99 | 1014.4 |
| 20260906201221 | 62 | 288 | 4.0 | 8.0 | 0.07 | 0.49 | 0.49 | 99 | 1014.4 |
| 20260906200717 | 63 | 90 | 0.0 | 0.0 | 0.24 | 0.49 | 0.49 | 99 | 1014.3 |
| 20260906200212 | 69 | 25 | 0.0 | 1.0 | 0.40 | 0.48 | 0.48 | 99 | 1014.5 |
| 20260906195708 | 79 | 77 | 0.0 | 1.0 | 0.90 | 0.45 | 0.45 | 99 | 1014.5 |
| 20260906195204 | 71 | 105 | 0.0 | 3.0 | 1.87 | 0.38 | 0.38 | 99 | 1014.5 |
| 20260906194700 | 67 | 294 | 0.0 | 1.0 | 1.68 | 0.28 | 0.28 | 98 | 1014.6 |
| 20260906194155 | 72 | 156 | 0.0 | 4.0 | 0.35 | 0.06 | 0.06 | 58 | 1014.7 |
| 20260906193650 | 73 | 254 | 3.0 | 7.0 | 0.00 | 0.00 | 0.00 | 50 | 1014.7 |
| 20260906193145 | 72 | 268 | 2.0 | 4.0 | 0.00 | 0.00 | 0.00 | 49 | 1014.7 |
| 20260906192641 | 71 | 265 | 3.0 | 7.0 | 0.00 | 0.00 | 0.00 | 51 | 1015.0 |
| 20260906192139 | 70 | 257 | 3.0 | 8.0 | 0.00 | 0.00 | 0.00 | 49 | 1015.0 |
| 20260906191635 | 69 | 235 | 3.0 | 4.0 | 0.00 | 0.00 | 0.00 | 51 | 1015.0 |
| 20260906191134 | 69 | 269 | 3.0 | 5.0 | 0.00 | 0.00 | 0.00 | 50 | 1014.9 |
| 20260906190628 | 69 | 250 | 4.0 | 8.0 | 0.00 | 0.00 | 0.00 | 52 | 1015.0 |
| 20260906190123 | 67 | 338 | 0.0 | 5.0 | 0.00 | 0.00 | 0.00 | 58 | 1015.1 |
| 20260906185621 | 69 | 273 | 3.0 | 5.0 | 0.00 | 0.00 | 0.00 | 57 | 1015.2 |
| 20260906185121 | 69 | 242 | 2.0 | 3.0 | 0.00 | 0.00 | 0.00 | 57 | 1015.2 |
| 20260906184616 | 68 | 242 | 2.0 | 3.0 | 0.00 | 0.00 | 0.00 | 60 | 1015.2 |
| 20260906184111 | 67 | 252 | 5.0 | 5.0 | 0.00 | 0.00 | 0.00 | 63 | 1015.2 |
| 20260906183607 | 67 | 258 | 2.0 | 3.0 | 0.00 | 0.00 | 0.00 | 64 | 1015.1 |
| 20260906183103 | 67 | 256 | 3.0 | 4.0 | 0.00 | 0.00 | 0.00 | 62 | 1015.2 |
| 20260906182557 | 65 | 257 | 3.0 | 4.0 | 0.00 | 0.00 | 0.00 | 65 | 1015.3 |
| 20260906182054 | 66 | 252 | 3.0 | 4.0 | 0.00 | 0.00 | 0.00 | 67 | 1015.4 |
| 20260906181549 | 65 | 248 | 2.0 | 5.0 | 0.00 | 0.00 | 0.00 | 67 | 1015.3 |
| 20260906181045 | 64 | 251 | 2.0 | 3.0 | 0.00 | 0.00 | 0.00 | 69 | 1015.3 |
| 20260906180545 | 63 | 251 | 0.0 | 3.0 | 0.00 | 0.00 | 0.00 | 76 | 1015.3 |
| 20260906180044 | 62 | 249 | 1.0 | 5.0 | 0.00 | 0.00 | 0.00 | 82 | 1015.2 |
| 20260906175543 | 62 | 236 | 1.0 | 3.0 | 0.00 | 0.00 | 0.00 | 84 | 1015.4 |
| 20260906175038 | 61 | 234 | 2.0 | 4.0 | 0.00 | 0.00 | 0.00 | 85 | 1015.5 |
| 20260906174536 | 60 | 235 | 1.0 | 5.0 | 0.00 | 0.00 | 0.00 | 88 | 1015.3 |
| 20260906174026 | 59 | 234 | 1.0 | 5.0 | 0.00 | 0.00 | 0.00 | 89 | 1015.5 |
| 20260906173520 | 59 | 233 | 1.0 | 3.0 | 0.00 | 0.00 | 0.00 | 88 | 1015.4 |
| 20260906173017 | 59 | 233 | 2.0 | 3.0 | 0.00 | 0.00 | 0.00 | 89 | 1015.4 |
| 20260906172511 | 59 | 234 | 1.0 | 3.0 | 0.00 | 0.00 | 0.00 | 90 | 1015.4 |
| 20260906172006 | 57 | 233 | 0.0 | 1.0 | 0.00 | 0.00 | 0.00 | 93 | 1015.5 |
| 20260906171501 | 57 | 233 | 2.0 | 3.0 | 0.00 | 0.00 | 0.00 | 94 | 1015.5 |
| 20260906170956 | 56 | 235 | 2.0 | 3.0 | 0.00 | 0.00 | 0.00 | 94 | 1015.5 |
| 20260906170453 | 56 | 233 | 0.0 | 0.0 | 0.00 | 0.00 | 0.00 | 96 | 1015.5 |
| 20260906165949 | 56 | 234 | 1.0 | 1.0 | 0.00 | 0.00 | 0.00 | 95 | 1015.6 |
| 20260906165448 | 55 | 234 | 0.0 | 1.0 | 0.00 | 0.00 | 0.00 | 96 | 1015.5 |
| 20260906164944 | 56 | 234 | 0.0 | 0.0 | 0.00 | 0.00 | 0.00 | 95 | 1015.5 |
| 20260906164442 | 55 | 234 | 0.0 | 0.0 | 0.00 | 0.00 | 0.00 | 96 | 1015.5 |
| 20260906163939 | 55 | 233 | 0.0 | 0.0 | 0.00 | 0.00 | 0.00 | 96 | 1015.5 |
| 20260906163434 | 55 | 223 | 0.0 | 0.0 | 0.00 | 0.00 | 0.00 | 96 | 1015.5 |
| 20260906162932 | 55 | 222 | 0.0 | 0.0 | 0.00 | 0.00 | 0.00 | 97 | 1015.6 |
| 20260906162425 | 55 | 221 | 0.0 | 0.0 | 0.00 | 0.00 | 0.00 | 98 | 1015.4 |
| 20260906161920 | 54 | 220 | 0.0 | 0.0 | 0.00 | 0.00 | 0.00 | 99 | 1015.4 |
| 20260906161419 | 54 | 220 | 0.0 | 0.0 | 0.00 | 0.00 | 0.00 | 99 | 1015.6 |
| 20260906160918 | 53 | 220 | 0.0 | 0.0 | 0.00 | 0.00 | 0.00 | 99 | 1015.5 |
| 20260906160407 | 53 | 218 | 0.0 | 0.0 | 0.00 | 0.00 | 0.00 | 99 | 1015.6 |
| 20260906155905 | 53 | 219 | 0.0 | 0.0 | 0.00 | 0.00 | 0.00 | 99 | 1015.6 |
| 20260906155359 | 53 | 219 | 0.0 | 0.0 | 0.00 | 0.00 | 0.00 | 99 | 1015.6 |
| 20260906154856 | 53 | 219 | 0.0 | 0.0 | 0.00 | 0.00 | 0.00 | 99 | 1015.6 |
| 20260906154354 | 53 | 219 | 0.0 | 0.0 | 0.00 | 0.00 | 0.00 | 99 | 1015.6 |
| 20260906153854 | 52 | 219 | 0.0 | 0.0 | 0.00 | 0.00 | 0.00 | 99 | 1015.5 |
| 20260906153353 | 52 | 219 | 0.0 | 0.0 | 0.00 | 0.00 | 0.00 | 99 | 1015.5 |
| 20260906152849 | 52 | 218 | 0.0 | 0.0 | 0.00 | 0.00 | 0.00 | 99 | 1015.4 |
| 20260906152348 | 52 | 218 | 0.0 | 0.0 | 0.00 | 0.00 | 0.00 | 99 | 1015.4 |
| 20260906151848 | 52 | 217 | 0.0 | 0.0 | 0.00 | 0.00 | 0.00 | 99 | 1015.5 |
| 20260906151343 | 52 | 216 | 0.0 | 0.0 | 0.00 | 0.00 | 0.00 | 99 | 1015.4 |
| 20260906150839 | 52 | 215 | 0.0 | 0.0 | 0.00 | 0.00 | 0.00 | 99 | 1015.5 |
| 20260906150335 | 52 | 218 | 0.0 | 0.0 | 0.00 | 0.00 | 0.00 | 99 | 1015.5 |
| 20260906145834 | 52 | 218 | 0.0 | 0.0 | 0.00 | 0.00 | 0.00 | 99 | 1015.3 |
| 20260906145333 | 51 | 219 | 0.0 | 0.0 | 0.00 | 0.00 | 0.00 | 99 | 1015.3 |
| 20260906144828 | 51 | 218 | 0.0 | 0.0 | 0.00 | 0.00 | 0.00 | 99 | 1015.3 |
| 20260906144323 | 51 | 210 | 0.0 | 0.0 | 0.00 | 0.00 | 0.00 | 99 | 1015.3 |
| 20260906143822 | 52 | 210 | 0.0 | 0.0 | 0.00 | 0.00 | 0.00 | 99 | 1015.1 |
| 20260906143319 | 51 | 210 | 0.0 | 0.0 | 0.00 | 0.00 | 0.00 | 99 | 1015.2 |
| 20260906142814 | 51 | 211 | 0.0 | 0.0 | 0.00 | 0.00 | 0.00 | 99 | 1015.2 |
| 20260906142309 | 51 | 208 | 0.0 | 0.0 | 0.00 | 0.00 | 0.00 | 99 | 1015.1 |
| 20260906141808 | 51 | 207 | 0.0 | 0.0 | 0.00 | 0.00 | 0.00 | 99 | 1015.1 |
| 20260906141303 | 51 | 207 | 0.0 | 0.0 | 0.00 | 0.00 | 0.00 | 99 | 1015.0 |
| 20260906140801 | 51 | 205 | 0.0 | 0.0 | 0.00 | 0.00 | 0.00 | 99 | 1014.9 |
| 20260906140257 | 51 | 204 | 0.0 | 0.0 | 0.00 | 0.00 | 0.00 | 99 | 1014.8 |
| 20260906135754 | 51 | 125 | 0.0 | 0.0 | 0.00 | 0.00 | 0.00 | 99 | 1014.7 |
| 20260906135249 | 51 | 125 | 0.0 | 0.0 | 0.00 | 0.00 | 0.00 | 99 | 1014.8 |
| 20260906134745 | 51 | 125 | 0.0 | 0.0 | 0.00 | 0.00 | 0.00 | 99 | 1014.6 |
| 20260906134240 | 51 | 125 | 0.0 | 0.0 | 0.00 | 0.00 | 0.00 | 99 | 1014.7 |
| 20260906133736 | 51 | 125 | 0.0 | 0.0 | 0.00 | 0.00 | 0.00 | 99 | 1014.6 |
| 20260906133231 | 51 | 125 | 0.0 | 0.0 | 0.00 | 0.00 | 0.00 | 99 | 1014.6 |
| 20260906132726 | 50 | 125 | 0.0 | 0.0 | 0.00 | 0.00 | 0.00 | 99 | 1014.5 |
| 20260906132222 | 51 | 125 | 0.0 | 0.0 | 0.00 | 0.00 | 0.00 | 99 | 1014.5 |
| 20260906131717 | 50 | 125 | 0.0 | 0.0 | 0.00 | 0.00 | 0.00 | 99 | 1014.3 |
| 20260906131212 | 51 | 125 | 0.0 | 0.0 | 0.00 | 0.00 | 0.00 | 99 | 1014.4 |
| 20260906130708 | 51 | 125 | 0.0 | 0.0 | 0.00 | 0.00 | 0.00 | 99 | 1014.4 |
| 20260906130203 | 51 | 125 | 0.0 | 0.0 | 0.00 | 0.00 | 0.00 | 99 | 1014.3 |
| 20260906125701 | 51 | 125 | 0.0 | 0.0 | 0.00 | 0.00 | 0.00 | 99 | 1014.2 |
| 20260906125159 | 51 | 125 | 0.0 | 0.0 | 0.00 | 0.00 | 0.00 | 99 | 1014.4 |
| 20260906124655 | 51 | 126 | 0.0 | 0.0 | 0.00 | 0.00 | 0.00 | 99 | 1014.3 |
| 20260906124150 | 51 | 126 | 0.0 | 0.0 | 0.00 | 0.00 | 0.00 | 99 | 1014.2 |
| 20260906123649 | 51 | 126 | 0.0 | 0.0 | 0.00 | 0.00 | 0.00 | 99 | 1014.3 |
| 20260906123145 | 51 | 126 | 0.0 | 0.0 | 0.00 | 0.00 | 0.00 | 99 | 1014.3 |
| 20260906122643 | 51 | 126 | 0.0 | 0.0 | 0.00 | 0.00 | 0.00 | 99 | 1014.2 |
| 20260906122139 | 51 | 126 | 0.0 | 0.0 | 0.00 | 0.00 | 0.00 | 99 | 1014.1 |
| 20260906121635 | 51 | 126 | 0.0 | 0.0 | 0.00 | 0.00 | 0.00 | 99 | 1014.1 |
| 20260906121132 | 52 | 126 | 0.0 | 0.0 | 0.00 | 0.00 | 0.00 | 99 | 1014.1 |
| 20260906120627 | 52 | 126 | 0.0 | 0.0 | 0.00 | 0.00 | 0.00 | 99 | 1014.2 |
| 20260906120124 | 51 | 126 | 0.0 | 0.0 | 0.00 | 0.00 | 0.00 | 99 | 1014.2 |
| 20260906115618 | 51 | 126 | 0.0 | 0.0 | 0.00 | 0.00 | 0.00 | 99 | 1014.3 |
| 20260906115114 | 51 | 126 | 0.0 | 0.0 | 0.00 | 0.00 | 0.00 | 99 | 1014.2 |
| 20260906114608 | 52 | 126 | 0.0 | 0.0 | 0.00 | 0.00 | 0.00 | 99 | 1014.3 |
| 20260906114103 | 52 | 126 | 0.0 | 0.0 | 0.00 | 0.00 | 0.00 | 99 | 1014.2 |
| 20260906113602 | 52 | 126 | 0.0 | 0.0 | 0.00 | 0.00 | 0.00 | 99 | 1014.3 |
| 20260906113057 | 52 | 126 | 0.0 | 0.0 | 0.00 | 0.00 | 0.00 | 99 | 1014.2 |
| 20260906112551 | 52 | 126 | 0.0 | 0.0 | 0.00 | 0.00 | 0.00 | 99 | 1014.3 |
| 20260906112048 | 52 | 126 | 0.0 | 0.0 | 0.00 | 0.00 | 0.00 | 99 | 1014.1 |
| 20260906111547 | 52 | 126 | 0.0 | 0.0 | 0.00 | 0.00 | 0.00 | 99 | 1014.1 |
| 20260906111043 | 52 | 126 | 0.0 | 0.0 | 0.00 | 0.00 | 0.00 | 99 | 1014.1 |
| 20260906110542 | 52 | 126 | 0.0 | 0.0 | 0.00 | 0.00 | 0.00 | 99 | 1014.2 |
| 20260906110042 | 52 | 126 | 0.0 | 0.0 | 0.00 | 0.00 | 0.00 | 99 | 1014.1 |
| 20260906105537 | 53 | 126 | 0.0 | 0.0 | 0.00 | 0.00 | 0.00 | 99 | 1014.2 |
| 20260906105033 | 52 | 126 | 0.0 | 0.0 | 0.00 | 0.00 | 0.00 | 99 | 1014.1 |
| 20260906104531 | 52 | 193 | 0.0 | 0.0 | 0.00 | 0.00 | 0.00 | 99 | 1014.0 |
| 20260906104026 | 52 | 194 | 0.0 | 0.0 | 0.00 | 0.00 | 0.00 | 99 | 1014.0 |
| 20260906103524 | 52 | 194 | 0.0 | 0.0 | 0.00 | 0.00 | 0.00 | 99 | 1014.0 |
| 20260906103020 | 52 | 194 | 0.0 | 0.0 | 0.00 | 0.00 | 0.00 | 99 | 1014.2 |
| 20260906102520 | 52 | 195 | 0.0 | 0.0 | 0.00 | 0.00 | 0.00 | 99 | 1014.1 |
| 20260906102015 | 52 | 195 | 0.0 | 0.0 | 0.00 | 0.00 | 0.00 | 99 | 1014.2 |
| 20260906101509 | 52 | 195 | 0.0 | 0.0 | 0.00 | 0.00 | 0.00 | 99 | 1014.1 |
| 20260906101005 | 53 | 195 | 0.0 | 0.0 | 0.00 | 0.00 | 0.00 | 99 | 1014.1 |
| 20260906100500 | 53 | 195 | 0.0 | 0.0 | 0.00 | 0.00 | 0.00 | 99 | 1014.1 |
| 20260906095959 | 53 | 195 | 0.0 | 0.0 | 0.00 | 0.00 | 0.00 | 99 | 1014.1 |
| 20260906095455 | 53 | 195 | 0.0 | 0.0 | 0.00 | 0.00 | 0.00 | 99 | 1014.1 |
| 20260906094950 | 53 | 195 | 0.0 | 0.0 | 0.00 | 0.00 | 0.00 | 99 | 1014.2 |
| 20260906094449 | 53 | 195 | 0.0 | 0.0 | 0.00 | 0.00 | 0.00 | 99 | 1014.2 |
| 20260906093946 | 53 | 195 | 0.0 | 0.0 | 0.00 | 0.00 | 0.00 | 99 | 1014.2 |
| 20260906093442 | 53 | 195 | 0.0 | 0.0 | 0.00 | 0.00 | 0.00 | 99 | 1014.3 |
| 20260906092941 | 53 | 195 | 0.0 | 0.0 | 0.00 | 0.00 | 0.00 | 99 | 1014.2 |
| 20260906092436 | 53 | 195 | 0.0 | 0.0 | 0.00 | 0.00 | 0.00 | 99 | 1014.2 |
| 20260906091931 | 53 | 195 | 0.0 | 0.0 | 0.00 | 0.00 | 0.00 | 99 | 1014.3 |
| 20260906091427 | 53 | 195 | 0.0 | 0.0 | 0.00 | 0.00 | 0.00 | 99 | 1014.2 |
| 20260906090923 | 53 | 195 | 0.0 | 0.0 | 0.00 | 0.00 | 0.00 | 99 | 1014.3 |
| 20260906090418 | 53 | 195 | 0.0 | 0.0 | 0.00 | 0.00 | 0.00 | 99 | 1014.3 |
| 20260906085918 | 53 | 195 | 0.0 | 0.0 | 0.00 | 0.00 | 0.00 | 99 | 1014.4 |
| 20260906085412 | 53 | 195 | 0.0 | 0.0 | 0.00 | 0.00 | 0.00 | 99 | 1014.4 |
| 20260906084911 | 53 | 195 | 0.0 | 0.0 | 0.00 | 0.00 | 0.00 | 99 | 1014.4 |
| 20260906084406 | 53 | 195 | 0.0 | 0.0 | 0.00 | 0.00 | 0.00 | 99 | 1014.3 |
| 20260906083905 | 53 | 196 | 0.0 | 0.0 | 0.00 | 0.00 | 0.00 | 99 | 1014.2 |
| 20260906083401 | 54 | 196 | 0.0 | 0.0 | 0.00 | 0.00 | 0.00 | 99 | 1014.4 |
| 20260906082901 | 53 | 194 | 0.0 | 0.0 | 0.00 | 0.00 | 0.00 | 99 | 1014.6 |
| 20260906082400 | 53 | 194 | 0.0 | 0.0 | 0.00 | 0.00 | 0.00 | 99 | 1014.4 |
| 20260906081857 | 53 | 195 | 0.0 | 0.0 | 0.00 | 0.00 | 0.00 | 99 | 1014.6 |
| 20260906081352 | 53 | 195 | 0.0 | 0.0 | 0.00 | 0.00 | 0.00 | 99 | 1014.5 |
| 20260906080848 | 54 | 196 | 0.0 | 0.0 | 0.00 | 0.00 | 0.00 | 99 | 1014.5 |
| 20260906080344 | 53 | 196 | 0.0 | 0.0 | 0.00 | 0.00 | 0.00 | 99 | 1014.5 |
| 20260906075843 | 54 | 196 | 0.0 | 0.0 | 0.00 | 0.00 | 0.00 | 99 | 1014.5 |
| 20260906075338 | 53 | 197 | 0.0 | 0.0 | 0.00 | 0.00 | 0.00 | 99 | 1014.4 |
| 20260906074834 | 54 | 198 | 0.0 | 0.0 | 0.00 | 0.00 | 0.00 | 99 | 1014.5 |
| 20260906074333 | 54 | 198 | 0.0 | 0.0 | 0.00 | 0.00 | 0.00 | 99 | 1014.4 |
| 20260906073832 | 54 | 198 | 0.0 | 0.0 | 0.00 | 0.00 | 0.00 | 99 | 1014.4 |
| 20260906073327 | 54 | 200 | 0.0 | 0.0 | 0.00 | 0.00 | 0.00 | 98 | 1014.4 |
| 20260906072824 | 54 | 200 | 0.0 | 0.0 | 0.00 | 0.00 | 0.00 | 98 | 1014.4 |
| 20260906072319 | 54 | 197 | 0.0 | 0.0 | 0.00 | 0.00 | 0.00 | 98 | 1014.5 |
| 20260906071815 | 54 | 200 | 0.0 | 0.0 | 0.00 | 0.00 | 0.00 | 98 | 1014.5 |
| 20260906071310 | 54 | 189 | 0.0 | 0.0 | 0.00 | 0.00 | 0.00 | 98 | 1014.4 |
| 20260906070807 | 54 | 113 | 0.0 | 0.0 | 0.00 | 0.00 | 0.00 | 98 | 1014.5 |
| 20260906070302 | 54 | 112 | 0.0 | 0.0 | 0.00 | 0.00 | 0.00 | 98 | 1014.5 |
| 20260906065801 | 54 | 195 | 0.0 | 0.0 | 0.00 | 0.00 | 0.00 | 98 | 1014.5 |
| 20260906065257 | 55 | 195 | 0.0 | 0.0 | 0.00 | 0.00 | 0.00 | 98 | 1014.6 |
| 20260906064752 | 54 | 303 | 0.0 | 0.0 | 0.00 | 0.00 | 0.00 | 98 | 1014.8 |
| 20260906064248 | 54 | 310 | 0.0 | 0.0 | 0.00 | 0.00 | 0.00 | 98 | 1014.7 |
| 20260906063743 | 54 | 313 | 0.0 | 0.0 | 0.00 | 0.00 | 0.00 | 98 | 1014.7 |
| 20260906063238 | 54 | 314 | 0.0 | 0.0 | 0.00 | 0.00 | 0.00 | 97 | 1014.6 |
| 20260906062733 | 54 | 314 | 0.0 | 0.0 | 0.00 | 0.00 | 0.00 | 97 | 1014.6 |
| 20260906062233 | 54 | 314 | 0.0 | 0.0 | 0.00 | 0.00 | 0.00 | 97 | 1014.6 |
| 20260906061729 | 54 | 314 | 0.0 | 0.0 | 0.00 | 0.00 | 0.00 | 97 | 1014.6 |
| 20260906061225 | 54 | 313 | 0.0 | 0.0 | 0.00 | 0.00 | 0.00 | 97 | 1014.6 |
| 20260906060720 | 54 | 313 | 0.0 | 0.0 | 0.00 | 0.00 | 0.00 | 97 | 1014.7 |
| 20260906060218 | 54 | 313 | 0.0 | 0.0 | 0.00 | 0.00 | 0.00 | 97 | 1014.6 |
| 20260906055713 | 54 | 313 | 0.0 | 0.0 | 0.00 | 0.00 | 0.00 | 97 | 1014.6 |
| 20260906055208 | 54 | 312 | 0.0 | 0.0 | 0.00 | 0.00 | 0.00 | 96 | 1014.5 |
| 20260906054703 | 55 | 312 | 0.0 | 0.0 | 0.00 | 0.00 | 0.00 | 96 | 1014.5 |
| 20260906054158 | 55 | 312 | 0.0 | 0.0 | 0.00 | 0.00 | 0.00 | 96 | 1014.4 |
| 20260906053654 | 55 | 312 | 0.0 | 0.0 | 0.00 | 0.00 | 0.00 | 96 | 1014.5 |
| 20260906053149 | 55 | 297 | 0.0 | 0.0 | 0.00 | 0.00 | 0.00 | 96 | 1014.5 |
| 20260906052644 | 55 | 285 | 0.0 | 0.0 | 0.00 | 0.00 | 0.00 | 96 | 1014.6 |
| 20260906052141 | 55 | 295 | 0.0 | 0.0 | 0.00 | 0.00 | 0.00 | 95 | 1014.7 |
| 20260906051637 | 55 | 312 | 0.0 | 0.0 | 0.00 | 0.00 | 0.00 | 95 | 1014.6 |
| 20260906051137 | 55 | 297 | 0.0 | 0.0 | 0.00 | 0.00 | 0.00 | 95 | 1014.6 |
| 20260906050632 | 55 | 298 | 0.0 | 0.0 | 0.00 | 0.00 | 0.00 | 95 | 1014.5 |
| 20260906050127 | 55 | 298 | 0.0 | 0.0 | 0.00 | 0.00 | 0.00 | 94 | 1014.6 |
| 20260906045626 | 55 | 274 | 0.0 | 0.0 | 0.00 | 0.00 | 0.00 | 94 | 1014.6 |
| 20260906045121 | 56 | 273 | 0.0 | 0.0 | 0.00 | 0.00 | 0.00 | 94 | 1014.5 |
| 20260906044617 | 56 | 273 | 0.0 | 0.0 | 0.00 | 0.00 | 0.00 | 94 | 1014.7 |
| 20260906044112 | 56 | 293 | 0.0 | 0.0 | 0.00 | 0.00 | 0.00 | 94 | 1014.5 |
| 20260906043609 | 56 | 251 | 0.0 | 0.0 | 0.00 | 0.00 | 0.00 | 93 | 1014.6 |
| 20260906043104 | 56 | 322 | 0.0 | 0.0 | 0.00 | 0.00 | 0.00 | 93 | 1014.5 |
| 20260906042603 | 56 | 281 | 0.0 | 0.0 | 0.00 | 0.00 | 0.00 | 92 | 1014.5 |
| 20260906042057 | 57 | 281 | 0.0 | 0.0 | 0.00 | 0.00 | 0.00 | 92 | 1014.7 |
| 20260906041555 | 57 | 275 | 0.0 | 0.0 | 0.00 | 0.00 | 0.00 | 91 | 1014.5 |
| 20260906041049 | 57 | 290 | 0.0 | 0.0 | 0.00 | 0.00 | 0.00 | 91 | 1014.5 |
| 20260906040544 | 57 | 281 | 0.0 | 0.0 | 0.00 | 0.00 | 0.00 | 90 | 1014.5 |
| 20260906040040 | 57 | 281 | 0.0 | 0.0 | 0.00 | 0.00 | 0.00 | 90 | 1014.4 |
| 20260906035534 | 57 | 281 | 0.0 | 0.0 | 0.00 | 0.00 | 0.00 | 90 | 1014.4 |
| 20260906035030 | 58 | 281 | 0.0 | 0.0 | 0.00 | 0.00 | 0.00 | 89 | 1014.5 |
| 20260906034530 | 58 | 278 | 0.0 | 0.0 | 0.00 | 0.00 | 0.00 | 89 | 1014.5 |
| 20260906034020 | 58 | 245 | 0.0 | 0.0 | 0.00 | 0.00 | 0.00 | 88 | 1014.4 |
| 20260906033520 | 58 | 245 | 0.0 | 0.0 | 0.00 | 0.00 | 0.00 | 87 | 1014.5 |
| 20260906033016 | 58 | 252 | 0.0 | 0.0 | 0.00 | 0.00 | 0.00 | 86 | 1014.4 |
| 20260906032513 | 59 | 251 | 0.0 | 0.0 | 0.00 | 0.00 | 0.00 | 84 | 1014.2 |
| 20260906032012 | 59 | 252 | 0.0 | 0.0 | 0.00 | 0.00 | 0.00 | 83 | 1014.3 |
| 20260906031502 | 59 | 251 | 0.0 | 0.0 | 0.00 | 0.00 | 0.00 | 83 | 1014.3 |
| 20260906030957 | 60 | 252 | 0.0 | 0.0 | 0.00 | 0.00 | 0.00 | 82 | 1014.4 |
| 20260906030452 | 60 | 247 | 0.0 | 0.0 | 0.00 | 0.00 | 0.00 | 81 | 1014.4 |
| 20260906025946 | 60 | 199 | 0.0 | 1.0 | 0.00 | 0.00 | 0.00 | 80 | 1014.5 |
| 20260906025445 | 60 | 237 | 0.0 | 4.0 | 0.00 | 0.00 | 0.00 | 79 | 1014.2 |
| 20260906024939 | 61 | 221 | 0.0 | 0.0 | 0.00 | 0.00 | 0.00 | 77 | 1014.3 |
| 20260906024438 | 62 | 247 | 0.0 | 0.0 | 0.00 | 0.00 | 0.00 | 76 | 1014.4 |
| 20260906023933 | 63 | 249 | 0.0 | 0.0 | 0.00 | 0.00 | 0.00 | 74 | 1014.4 |
| 20260906023430 | 64 | 250 | 0.0 | 0.0 | 0.00 | 0.00 | 0.00 | 71 | 1014.4 |
| 20260906022929 | 65 | 247 | 0.0 | 0.0 | 0.00 | 0.00 | 0.00 | 69 | 1014.4 |
| 20260906022425 | 66 | 265 | 0.0 | 0.0 | 0.00 | 0.00 | 0.00 | 66 | 1014.5 |
| 20260906021920 | 66 | 225 | 0.0 | 0.0 | 0.00 | 0.00 | 0.00 | 65 | 1014.5 |
| 20260906021421 | 67 | 263 | 0.0 | 1.0 | 0.00 | 0.00 | 0.00 | 63 | 1014.5 |
| 20260906020920 | 67 | 244 | 0.0 | 1.0 | 0.00 | 0.00 | 0.00 | 62 | 1014.3 |
| 20260906020415 | 68 | 228 | 0.0 | 3.0 | 0.00 | 0.00 | 0.00 | 62 | 1014.4 |
| 20260906015909 | 68 | 249 | 2.0 | 5.0 | 0.00 | 0.00 | 0.00 | 61 | 1014.4 |
| 20260906015408 | 69 | 262 | 1.0 | 5.0 | 0.00 | 0.00 | 0.00 | 58 | 1014.6 |
| 20260906014903 | 68 | 238 | 4.0 | 5.0 | 0.00 | 0.00 | 0.00 | 59 | 1014.5 |
| 20260906014402 | 68 | 224 | 3.0 | 5.0 | 0.00 | 0.00 | 0.00 | 59 | 1014.5 |
| 20260906013859 | 69 | 237 | 1.0 | 3.0 | 0.00 | 0.00 | 0.00 | 57 | 1014.3 |
| 20260906013354 | 70 | 226 | 4.0 | 5.0 | 0.00 | 0.00 | 0.00 | 53 | 1014.5 |
| 20260906012849 | 71 | 242 | 2.0 | 7.0 | 0.00 | 0.00 | 0.00 | 53 | 1014.5 |
| 20260906012338 | 72 | 251 | 1.0 | 5.0 | 0.00 | 0.00 | 0.00 | 51 | 1014.5 |
| 20260906011838 | 72 | 233 | 1.0 | 4.0 | 0.00 | 0.00 | 0.00 | 50 | 1014.5 |
| 20260906011333 | 72 | 245 | 2.0 | 5.0 | 0.00 | 0.00 | 0.00 | 47 | 1014.5 |
| 20260906010829 | 72 | 233 | 0.0 | 4.0 | 0.00 | 0.00 | 0.00 | 51 | 1014.4 |
| 20260906010325 | 72 | 256 | 3.0 | 5.0 | 0.00 | 0.00 | 0.00 | 51 | 1014.5 |
| 20260906005821 | 73 | 275 | 6.0 | 7.0 | 0.00 | 0.00 | 0.00 | 46 | 1014.6 |
| 20260906005320 | 72 | 284 | 4.0 | 7.0 | 0.00 | 0.00 | 0.00 | 50 | 1014.5 |
| 20260906004818 | 72 | 255 | 4.0 | 8.0 | 0.00 | 0.00 | 0.00 | 48 | 1014.4 |
| 20260906004319 | 73 | 276 | 3.0 | 10.0 | 0.00 | 0.00 | 0.00 | 49 | 1014.4 |
| 20260906003814 | 73 | 246 | 3.0 | 5.0 | 0.00 | 0.00 | 0.00 | 48 | 1014.5 |
| 20260906003309 | 71 | 262 | 8.0 | 11.0 | 0.00 | 0.00 | 0.00 | 49 | 1014.6 |
| 20260906002805 | 72 | 250 | 8.0 | 12.0 | 0.00 | 0.00 | 0.00 | 46 | 1014.5 |
| 20260906002306 | 71 | 230 | 8.0 | 11.0 | 0.00 | 0.00 | 0.00 | 50 | 1014.5 |
| 20260906001800 | 74 | 242 | 8.0 | 12.0 | 0.00 | 0.00 | 0.00 | 48 | 1014.4 |
| 20260906001300 | 71 | 248 | 2.0 | 7.0 | 0.00 | 0.00 | 0.00 | 51 | 1014.4 |
| 20260906000755 | 72 | 232 | 11.0 | 14.0 | 0.00 | 0.00 | 0.00 | 49 | 1014.3 |
| 20260906000249 | 74 | 248 | 5.0 | 12.0 | 0.00 | 0.00 | 0.00 | 48 | 1014.4 |
| 20260905235744 | 75 | 240 | 3.0 | 8.0 | 0.00 | 0.00 | 0.00 | 47 | 1014.3 |
| 20260905235244 | 74 | 263 | 2.0 | 10.0 | 0.00 | 0.00 | 0.00 | 46 | 1014.3 |
| 20260905234740 | 73 | 249 | 4.0 | 12.0 | 0.00 | 0.00 | 0.00 | 47 | 1014.3 |
| 20260905234235 | 75 | 270 | 8.0 | 11.0 | 0.00 | 0.00 | 0.00 | 44 | 1014.3 |
| 20260905233730 | 75 | 262 | 3.0 | 10.0 | 0.00 | 0.00 | 0.00 | 42 | 1014.3 |
| 20260905233229 | 76 | 259 | 5.0 | 8.0 | 0.00 | 0.00 | 0.00 | 43 | 1014.2 |
| 20260905232724 | 76 | 264 | 4.0 | 12.0 | 0.00 | 0.00 | 0.00 | 43 | 1014.2 |